Weather History for PAWN - October, 2011

Change the Weather History Date:

Tuesday, October 18, 2011

  Actual Average Record
Temperature  
Mean Temperature 24 °F -  
Max Temperature 30 °F 23 °F 51 °F (2007)
Min Temperature 19 °F 11 °F -13 °F (1996)
Degree Days  
Heating Degree Days 40    
Moisture  
Dew Point 21 °F    
Average Humidity 82    
Maximum Humidity 93    
Minimum Humidity 69    
Precipitation  
Precipitation 0.00 in - - ()
Sea Level Pressure  
Sea Level Pressure 29.80 in    
Wind  
Wind Speed 5 mph (North)    
Max Wind Speed 8 mph    
Max Gust Speed -    
Visibility 9 miles    
Events      
Averages and records for this station are not official NWS values.
T = Trace of Precipitation, MM = Missing Value Source: NWS Daily Summary

Daily Weather History Graph

Daily Weather History Graph

Search for Another Location

Airport or City:

Trip Planner

Search our weather history database for the weather conditions in past years. The results will help you decide how hot, cold, wet, or windy it might be!

Date:

Astronomy

Oct. 18, 2011 Rise Set
Actual Time 10:05 AM AKDT 7:07 PM AKDT
Civil Twilight 9:08 AM AKDT 8:04 PM AKDT
Nautical Twilight 8:04 AM AKDT 9:07 PM AKDT
Astronomical Twilight 7:00 AM AKDT 10:11 PM AKDT
Moon 9:57 PM AKDT (10/18) 6:14 PM AKDT (10/18)
Length of Visible Light 10h 56m
Length of Day
9h 02m
Waning Gibbous, 63% of the Moon is Illuminated
Oct 18
Waning Gibbous
Oct 19
Last Quarter
Oct 26
New
Nov 2
First Quarter
Nov 10
Full

Hourly Weather History & Observations

Time (AKDT) Temp. Windchill Dew Point Humidity Pressure Visibility Wind Dir Wind Speed Gust Speed Precip Events Conditions
12:16 AM 28.4 °F 23.3 °F 24.8 °F 86% 29.88 in 2.5 mi NNE 4.6 mph - N/A   Overcast
12:36 AM 28.4 °F 23.3 °F 24.8 °F 86% 29.88 in 1.2 mi NNE 4.6 mph - N/A   Overcast
12:56 AM 28.4 °F 22.2 °F 24.8 °F 86% 29.87 in 1.2 mi NNE 5.8 mph - N/A   Overcast
1:16 AM 28.4 °F 22.2 °F 24.8 °F 86% 29.87 in 2.5 mi NNE 5.8 mph - N/A   Overcast
1:36 AM 28.4 °F 22.2 °F 24.8 °F 86% 29.87 in 4.0 mi NNE 5.8 mph - N/A   Overcast
1:56 AM 28.4 °F 23.3 °F 24.8 °F 86% 29.87 in 9.0 mi NNE 4.6 mph - N/A   Overcast
2:16 AM 28.4 °F 22.2 °F 24.8 °F 86% 29.86 in 10.0 mi North 5.8 mph - N/A   Overcast
2:36 AM 28.4 °F 22.2 °F 24.8 °F 86% 29.86 in 10.0 mi NNE 5.8 mph - N/A   Overcast
2:56 AM 28.4 °F 22.2 °F 24.8 °F 86% 29.86 in 10.0 mi NNE 5.8 mph - N/A   Overcast
3:16 AM 28.4 °F 22.2 °F 24.8 °F 86% 29.85 in 10.0 mi NNE 5.8 mph - N/A   Overcast
3:36 AM 28.4 °F 21.2 °F 24.8 °F 86% 29.85 in 10.0 mi NNE 6.9 mph - N/A   Overcast
3:56 AM 26.6 °F 20.0 °F 24.8 °F 93% 29.85 in 10.0 mi North 5.8 mph - N/A   Overcast
4:16 AM 26.6 °F 21.2 °F 24.8 °F 93% 29.84 in 10.0 mi NNW 4.6 mph - N/A   Overcast
4:36 AM 26.6 °F 22.6 °F 23.0 °F 86% 29.84 in 10.0 mi NNE 3.5 mph - N/A   Overcast
4:56 AM 26.6 °F 19.1 °F 23.0 °F 86% 29.83 in 10.0 mi NNE 6.9 mph - N/A   Overcast
5:16 AM 26.6 °F 21.2 °F 23.0 °F 86% 29.83 in 10.0 mi North 4.6 mph - N/A   Overcast
5:36 AM 24.8 °F 19.1 °F 21.2 °F 86% 29.82 in 10.0 mi North 4.6 mph - N/A   Overcast
5:56 AM 24.8 °F 19.1 °F 21.2 °F 86% 29.82 in 10.0 mi NNE 4.6 mph - N/A   Overcast
6:16 AM 24.8 °F - 19.4 °F 80% 29.82 in 10.0 mi Calm Calm - N/A   Overcast
6:36 AM 24.8 °F 19.1 °F 19.4 °F 80% 29.81 in 10.0 mi NNW 4.6 mph - N/A   Overcast
6:56 AM 23.0 °F 18.4 °F 19.4 °F 86% 29.81 in 10.0 mi NNW 3.5 mph - N/A   Overcast
7:16 AM 21.2 °F 13.6 °F 17.6 °F 86% 29.81 in 10.0 mi NNW 5.8 mph - N/A   Overcast
7:36 AM 23.0 °F 17.0 °F 19.4 °F 86% 29.81 in 10.0 mi NNW 4.6 mph - N/A   Overcast
7:56 AM 21.2 °F 12.6 °F 17.6 °F 86% 29.81 in 10.0 mi NW 6.9 mph - N/A   Overcast
8:16 AM 19.4 °F 10.4 °F 15.8 °F 86% 29.81 in 10.0 mi NNW 6.9 mph - N/A   Overcast
8:36 AM 21.2 °F 13.6 °F 17.6 °F 86% 29.81 in 10.0 mi NNW 5.8 mph - N/A   Overcast
8:56 AM 23.0 °F 17.0 °F 19.4 °F 86% 29.80 in 10.0 mi North 4.6 mph - N/A   Overcast
9:16 AM 21.2 °F 14.9 °F 19.4 °F 93% 29.80 in 10.0 mi North 4.6 mph - N/A   Overcast
9:36 AM 21.2 °F 16.4 °F 17.6 °F 86% 29.80 in 10.0 mi NNW 3.5 mph - N/A   Overcast
9:56 AM 21.2 °F 14.9 °F 19.4 °F 93% 29.80 in 9.0 mi NNW 4.6 mph - N/A   Overcast
10:16 AM 23.0 °F 15.8 °F 19.4 °F 86% 29.80 in 10.0 mi NNW 5.8 mph - N/A   Overcast
10:36 AM 23.0 °F 15.8 °F 19.4 °F 86% 29.79 in 10.0 mi NNW 5.8 mph - N/A   Overcast
10:56 AM 23.0 °F 17.0 °F 19.4 °F 86% 29.79 in 10.0 mi North 4.6 mph - N/A   Overcast
11:16 AM 23.0 °F 15.8 °F 19.4 °F 86% 29.79 in 10.0 mi North 5.8 mph - N/A   Overcast
11:36 AM 23.0 °F 17.0 °F 19.4 °F 86% 29.79 in 10.0 mi North 4.6 mph - N/A   Overcast
11:56 AM 24.8 °F 19.1 °F 19.4 °F 80% 29.79 in 10.0 mi North 4.6 mph - N/A   Overcast
12:16 PM 24.8 °F 17.9 °F 19.4 °F 80% 29.79 in 10.0 mi NNE 5.8 mph - N/A   Overcast
12:36 PM 24.8 °F 19.1 °F 19.4 °F 80% 29.79 in 10.0 mi North 4.6 mph - N/A   Overcast
12:56 PM 26.6 °F 22.6 °F 19.4 °F 74% 29.78 in 10.0 mi North 3.5 mph - N/A   Overcast
1:16 PM 26.6 °F 21.2 °F 21.2 °F 80% 29.78 in 10.0 mi NNW 4.6 mph - N/A   Overcast
1:36 PM 26.6 °F 20.0 °F 19.4 °F 74% 29.78 in 10.0 mi NNW 5.8 mph - N/A   Overcast
1:56 PM 26.6 °F 21.2 °F 21.2 °F 80% 29.78 in 10.0 mi NNE 4.6 mph - N/A   Overcast
2:16 PM 26.6 °F - 19.4 °F 74% 29.77 in 10.0 mi Calm Calm - N/A   Overcast
2:36 PM 26.6 °F 19.1 °F 21.2 °F 80% 29.77 in 10.0 mi NNW 6.9 mph - N/A   Overcast
2:56 PM 28.4 °F 22.2 °F 19.4 °F 69% 29.77 in 10.0 mi North 5.8 mph - N/A   Overcast
3:16 PM 28.4 °F 22.2 °F 19.4 °F 69% 29.77 in 10.0 mi North 5.8 mph - N/A   Overcast
3:36 PM 28.4 °F 22.2 °F 21.2 °F 74% 29.76 in 10.0 mi North 5.8 mph - N/A   Overcast
3:56 PM 28.4 °F 23.3 °F 21.2 °F 74% 29.76 in 10.0 mi NNW 4.6 mph - N/A   Overcast
4:16 PM 28.4 °F 23.3 °F 21.2 °F 74% 29.76 in 10.0 mi North 4.6 mph - N/A   Overcast
4:36 PM 28.4 °F - 21.2 °F 74% 29.75 in 10.0 mi Calm Calm - N/A   Overcast
5:16 PM 30.2 °F 25.4 °F 21.2 °F 69% 29.75 in 10.0 mi NNE 4.6 mph - N/A   Overcast
5:36 PM 28.4 °F 22.2 °F 21.2 °F 74% 29.75 in 10.0 mi NNE 5.8 mph - N/A   Overcast
5:56 PM 28.4 °F 21.2 °F 21.2 °F 74% 29.75 in 10.0 mi NNE 6.9 mph - N/A   Overcast
6:16 PM 28.4 °F 22.2 °F 21.2 °F 74% 29.75 in 10.0 mi NNE 5.8 mph - N/A   Overcast
6:36 PM 28.4 °F 20.4 °F 21.2 °F 74% 29.74 in 10.0 mi NNE 8.1 mph - N/A   Overcast
6:56 PM 26.6 °F 20.0 °F 19.4 °F 74% 29.74 in 10.0 mi NNE 5.8 mph - N/A   Overcast
7:16 PM 26.6 °F 19.1 °F 19.4 °F 74% 29.74 in 10.0 mi NNE 6.9 mph - N/A   Overcast
7:36 PM 26.6 °F 19.1 °F 17.6 °F 69% 29.73 in 10.0 mi North 6.9 mph - N/A   Overcast
7:56 PM 26.6 °F 18.2 °F 17.6 °F 69% 29.73 in 10.0 mi NNE 8.1 mph - N/A   Overcast
8:16 PM 24.8 °F 16.1 °F 17.6 °F 74% 29.73 in 10.0 mi NNE 8.1 mph - N/A   Overcast
8:36 PM 24.8 °F 16.9 °F 15.8 °F 69% 29.73 in 10.0 mi NNE 6.9 mph - N/A   Overcast
8:56 PM 23.0 °F 13.9 °F 15.8 °F 74% 29.74 in 10.0 mi NNE 8.1 mph - N/A   Overcast
9:16 PM 21.2 °F 13.6 °F 14.0 °F 74% 29.73 in 10.0 mi NNE 5.8 mph - N/A   Overcast
9:36 PM 19.4 °F 12.8 °F 12.2 °F 74% 29.73 in 10.0 mi NNW 4.6 mph - N/A   Overcast
9:56 PM 17.6 °F 9.3 °F 14.0 °F 86% 29.73 in 10.0 mi NNW 5.8 mph - N/A   Overcast
10:16 PM 19.4 °F 11.5 °F 14.0 °F 80% 29.73 in 10.0 mi North 5.8 mph - N/A   Overcast
10:36 PM 17.6 °F - 12.2 °F 79% 29.73 in 10.0 mi Calm Calm - N/A   Overcast
10:56 PM 17.6 °F 9.3 °F 12.2 °F 79% 29.73 in 10.0 mi North 5.8 mph - N/A   Overcast
11:16 PM 15.8 °F - 10.4 °F 79% 29.73 in 10.0 mi Calm Calm - N/A   Overcast
11:36 PM 19.4 °F 11.5 °F 12.2 °F 74% 29.73 in 10.0 mi NNE 5.8 mph - N/A   Overcast
11:56 PM 19.4 °F 11.5 °F 14.0 °F 80% 29.73 in 10.0 mi North 5.8 mph - N/A   Overcast